{"data":{"norad_id":66785,"epoch":"2026-05-24T22:49:30.084096Z","epoch_age_seconds":80032,"freshness":"FRESH","line1":"1 66785U 25276EA  26144.95104264  .00006298  00000+0  51020-3 0  9997","line2":"2 66785  97.5280 216.6315 0005670 184.9013 175.2156 15.00037308 26667","mean_motion":15.00037308,"eccentricity":0.000567,"inclination_deg":97.528,"raan_deg":216.6315,"arg_perigee_deg":184.9013,"mean_anomaly_deg":175.2156,"bstar":0.0005102,"rev_number":2666,"period_min":95.997612347386,"perigee_km":562.84342151356,"apogee_km":570.71895874116,"semimajor_km":6944.9181901274,"source":"CELESTRAK","updated_at":"2026-05-25T13:38:13.576814Z"}}